Погода в Быковщине

Россия / Псковская область     58°50′27″N   27°52′45″E
темп.,
°C
ветер,
м/с
пор.,
м/с
влажн.,
%
обл.,
%
осадки,
мм/ч
давл.,
гПа
погр.,
м
19 апреля, пн
пн1900:00+6св311655 0.0 1027252
03:00+5всв39805 0.0 1028174
06:00+4всв38878 0.0 1027143
09:00+9всв47655 0.0 1027401
12:00+13всв4547100 0.0 10261366
15:00+14всв453978 0.0 10261810
18:00+14в35385 0.0 10251790
21:00+8всв37582 0.0 1025136
20 апреля, вт
вт2000:00+5всв38673 0.0 1025174
03:00+4в25825 0.0 1024104
06:00+2всв378416 0.0 1023145
09:00+7в475665 0.0 1022494
12:00+10в46415 0.0 10201747
15:00+11в463786 0.0 10182070
18:00+10вюв454083 0.0 10171903
21:00+5в236338 0.0 101665
21 апреля, ср
ср2100:00+4в238013 0.0 101447
03:00+2в228961 0.0 101325
06:00+4св2486100 0.0 1010171
09:00+5св2375100 0.0 1008641
12:00+6с2474100 0.1 1006898
15:00+5с3484100 0.3 1004711
18:00+3ссз3696100 1.5 1004497
21:00+3сз2598100 2.3 1004362
22 апреля, чт
чт2200:00+3зсз1499100 0.3 1004337
03:00+2зюз1298100 0.3 1004268
06:00+1ю119898 0.0 100525
09:00+5ююз238522 0.0 1006305
12:00+10юз345856 0.0 1007826
15:00+13юз364884 0.0 10071696
18:00+8зюз247786 0.1 1009275
21:00+6юз1187100 1.0 101041
23 апреля, пт
пт2300:00+4ююз2487100 0.0 101089
03:00+4ю2386100 0.0 100860
06:00+3ю2489100 0.0 1008103
09:00+5юз3683100 0.3 1007512
12:00+7юз3562100 0.0 1007876
15:00+9юз354499 0.0 10071689
18:00+9з234426 0.0 10071286
21:00+4в117791 0.6 100710